EW3602 Weather Reports


time (UTC)temp
C
wind
direction
speed
KPH
gust
KPH
rain 1hr
cm
rain 24hr
cm
rain mn
cm
humidity
%
barometer
mb
20200229080204 15 63 4.8 8.0 0.00 0.00 0.00 83 1017.4
20200229074739 15 56 0.0 9.7 0.00 0.00 0.00 84 1017.8
20200229073245 15 53 8.0 9.7 0.00 0.00 0.00 83 1018.1
20200229071651 16 46 0.0 3.2 0.00 0.00 0.00 84 1018.4
20200229070221 15 43 0.0 6.4 0.00 0.00 0.00 85 1018.5
20200229064645 16 77 8.0 9.7 0.00 0.00 0.00 84 1018.2
20200229063159 16 58 6.4 8.0 0.00 0.00 0.00 84 1018.3
20200229061612 16 58 6.4 8.0 0.00 0.00 0.00 83 1018.4
20200229060105 16 58 3.2 4.8 0.00 0.00 0.00 85 1018.4
20200229054713 16 50 1.6 8.0 0.00 0.00 0.00 85 1018.3
20200229053135 16 65 6.4 8.0 0.00 0.00 0.00 84 1018.4
20200229051630 17 56 1.6 8.0 0.00 0.00 0.00 82 1018.6
20200229050141 17 51 3.2 4.8 0.00 0.00 0.00 83 1018.7
20200229044722 17 61 6.4 9.7 0.00 0.00 0.00 83 1018.6
20200229043214 17 56 3.2 6.4 0.00 0.00 0.00 83 1018.7
20200229041607 17 63 4.8 6.4 0.00 0.00 0.00 82 1018.9
20200229040126 18 79 0.0 4.8 0.00 0.00 0.00 81 1018.8
20200229034601 18 75 0.0 3.2 0.00 0.00 0.00 81 1018.8
20200229033120 19 75 0.0 3.2 0.00 0.00 0.00 78 1018.6
20200229031700 19 68 0.0 1.6 0.00 0.00 0.00 80 1018.3
20200229030145 20 347 0.0 1.6 0.00 0.00 0.00 80 1018.2
20200229024615 20 349 0.0 1.6 0.00 0.00 0.00 81 1017.8
20200229023325 20 349 0.0 1.6 0.00 0.00 0.00 81 1017.6
20200229021630 20 349 0.0 0.0 0.00 0.00 0.00 80 1017.6
20200229020100 20 349 0.0 1.6 0.00 0.00 0.00 80 1017.5
20200229014545 20 342 1.6 8.0 0.00 0.00 0.00 79 1017.5
20200229013048 20 329 6.4 9.7 0.00 0.00 0.00 79 1017.5
20200229011605 21 293 3.2 9.7 0.00 0.00 0.00 78 1017.3
20200229010052 21 305 4.8 8.0 0.00 0.00 0.00 76 1017.3
20200229004625 21 275 4.8 8.0 0.00 0.00 0.00 77 1017.3
20200229003103 21 297 4.8 12.9 0.00 0.00 0.00 76 1017.2
20200229001611 21 324 8.0 12.9 0.00 0.00 0.00 76 1017.0
20200229000116 22 273 8.0 11.3 0.00 0.00 0.00 76 1016.8
20200228234550 22 288 4.8 11.3 0.00 0.00 0.00 73 1016.6
20200228233137 22 330 4.8 9.7 0.00 0.00 0.00 69 1016.6
20200228231552 23 255 3.2 9.7 0.00 0.00 0.00 64 1016.6
20200228230109 23 266 4.8 11.3 0.00 0.00 0.00 63 1016.5
20200228224702 23 181 3.2 12.9 0.00 0.00 0.00 62 1016.5
20200228223058 23 209 3.2 11.3 0.00 0.00 0.00 64 1016.6
20200228221617 22 233 6.4 12.9 0.00 0.00 0.00 64 1016.5
20200228220032 22 248 3.2 12.9 0.00 0.00 0.00 70 1016.4
20200228214558 22 222 4.8 11.3 0.00 0.00 0.00 72 1016.4
20200228213059 22 219 6.4 16.1 0.00 0.00 0.00 75 1016.4
20200228211552 22 191 11.3 17.7 0.00 0.00 0.00 74 1016.3
20200228210040 22 226 9.7 19.3 0.00 0.00 0.00 75 1016.3
20200228204644 22 165 6.4 17.7 0.00 0.00 0.00 75 1016.2
20200228203049 22 248 8.0 16.1 0.00 0.00 0.00 77 1016.4
20200228201526 22 212 6.4 12.9 0.00 0.00 0.00 77 1016.7
20200228200053 22 264 6.4 14.5 0.00 0.00 0.00 74 1016.9
20200228194552 22 220 6.4 12.9 0.00 0.00 0.00 72 1017.2
20200228193043 22 225 3.2 9.7 0.00 0.00 0.00 76 1017.5
20200228191557 21 256 4.8 14.5 0.00 0.00 0.00 81 1017.9
20200228190040 21 245 8.0 14.5 0.00 0.00 0.00 81 1018.2
20200228184522 21 257 8.0 12.9 0.00 0.00 0.00 79 1018.5
20200228183029 21 264 9.7 16.1 0.00 0.00 0.00 83 1018.9
20200228181524 21 238 8.0 14.5 0.00 0.00 0.00 82 1019.0
20200228180045 21 238 8.0 17.7 0.00 0.00 0.00 82 1019.1
20200228174545 21 250 11.3 14.5 0.00 0.00 0.00 81 1019.1
20200228173043 21 254 6.4 14.5 0.00 0.00 0.00 81 1019.0
20200228171536 21 252 8.0 12.9 0.00 0.00 0.00 79 1018.9
20200228170053 21 226 4.8 9.7 0.00 0.00 0.00 80 1018.6
20200228164514 21 192 4.8 11.3 0.00 0.00 0.00 80 1018.6
20200228163052 21 202 0.0 4.8 0.00 0.00 0.00 79 1018.7
20200228161523 21 203 1.6 6.4 0.00 0.00 0.00 78 1018.6
20200228160033 21 108 0.0 1.6 0.00 0.00 0.00 79 1018.4
20200228154507 20 74 0.0 3.2 0.00 0.00 0.00 83 1018.4
20200228153003 18 71 4.8 8.0 0.00 0.00 0.00 86 1018.3
20200228151607 17 73 3.2 9.7 0.00 0.00 0.00 90 1018.1
20200228150336 16 72 6.4 9.7 0.00 0.00 0.00 92 1018.1
20200228144615 15 37 6.4 9.7 0.00 0.00 0.00 93 1017.8
20200228143102 15 55 4.8 8.0 0.00 0.00 0.00 93 1017.8
20200228141631 15 48 6.4 8.0 0.00 0.00 0.00 94 1017.5
20200228140103 15 53 3.2 8.0 0.00 0.00 0.00 95 1017.3
20200228134619 15 51 6.4 9.7 0.00 0.00 0.00 96 1017.1
20200228133207 15 53 6.4 8.0 0.00 0.00 0.00 95 1017.0
20200228131633 15 64 8.0 11.3 0.00 0.00 0.00 95 1017.2
20200228130050 14 56 6.4 8.0 0.00 0.00 0.00 95 1017.2
20200228124600 15 62 6.4 9.7 0.00 0.00 0.00 95 1017.1
20200228123136 14 55 4.8 8.0 0.00 0.00 0.00 95 1017.0
20200228121634 15 59 4.8 8.0 0.00 0.00 0.00 95 1016.9
20200228120042 15 46 1.6 6.4 0.00 0.00 0.00 96 1016.7
20200228114644 14 69 3.2 6.4 0.00 0.00 0.00 96 1016.6
20200228113108 14 58 6.4 8.0 0.00 0.00 0.00 95 1016.5
20200228111553 14 58 1.6 4.8 0.00 0.00 0.00 95 1016.5
20200228110035 15 94 0.0 4.8 0.00 0.00 0.00 94 1016.2
20200228104619 15 60 3.2 6.4 0.00 0.00 0.00 95 1016.3
20200228103045 14 55 3.2 8.0 0.00 0.00 0.00 95 1016.3
20200228101544 15 55 3.2 8.0 0.00 0.00 0.00 94 1016.2
20200228100049 15 68 4.8 8.0 0.00 0.00 0.00 94 1016.5
20200228094618 15 55 0.0 4.8 0.00 0.00 0.00 95 1016.7
20200228093144 16 58 3.2 6.4 0.00 0.00 0.00 95 1016.7
20200228091617 16 56 0.0 3.2 0.00 0.00 0.00 95 1016.9
20200228090037 15 56 1.6 4.8 0.00 0.00 0.00 94 1017.0
20200228084548 15 69 1.6 4.8 0.00 0.00 0.00 95 1017.2
20200228083034 15 72 3.2 6.4 0.00 0.00 0.00 95 1017.4
20200228081600 15 60 3.2 4.8 0.00 0.00 0.00 95 1017.7